Jackpot

Texas Poker Multi Jackpot System

Kini Telah hadir Jackpot SUPER ROYAL FLUSH

Kini Telah hadir Jackpot 2000 (khusus table VIP keatas).

Ikutilah global jackpot yang tersedia di system kami, dengan system jackpot terbaru dan pertama di indonesia, anda dapat membeli jackpot dengan harga 100 rupiah saja dan menangkan hadiahnya hingga puluhan juta rupiah.

Jackpot bukanlah suatu keharusan untuk dibeli, namun kami memberikan suatu fitur tambahan untuk member tercinta dari www.pbpoker.net.

Terdapat tiga pilihan harga jackpot yang bisa anda beli yaitu :100,500,1000 dan 2000(khusus table VIP Keatas) rupiah.

Hadiah dari Multi jackpot system www.pbpoker.net

  1. full house x 10 harga jackpot yang anda beli.
      (contoh:anda membeli 1000 maka:1000 X10 = 10.000)
  2. four of kind x 250 harga jackpot yang anda beli
      (contoh:anda membeli 1000 maka:1000 X250 = 250.000)
  3. Straight flush x 1200
      (contoh:anda membeli 1000 maka:1000 X1200 = 1.200.000)
  4. Royal flush x 10000 harga jackpot yang anda beli
      (contoh:anda membeli 1000 maka:1000 X10000 = 10.000.000)
  5. SUPER ROYAL FLUSH x 30000 harga jackpot yang anda beli
      (contoh:anda membeli 1000 maka:1000 X30000 = 30.000.000)

Kondisi kartu

  1. full house adalah kondisi kartu dimana kartu anda dan kartu tengah dengan total 7 kartu bisa mendapatkan nilai 5 kartu dengan kombinasi 1 tris(three of kind) dan 1 pair, contoh 3 kartu 10 dan 2 kartu 5
  2. Four of kind adalah kondisi kartu dimana kartu anda dan kartu tengah dengan total 7 kartu bisa mendapatkan nilai 5 kartu dengan kombinasi 4 kartu yang sama jumlah dan 1 kartu apapun juga contoh anda mendapatkan 4 buah kartu angka 3 dan 1 kartu apapun.
  3. Staright flush adalah kondisi kartu dimana kartu anda dan kartu tengah dengan total 7 kartu bisa mendapatkan nilai 5 kartu dengan kombinasi seri / staright dengan kembang yang sama contoh : urutan kartu dari angka 5, 6, 7, 8 , 9 10 dengan kembang yg sama misalnya as hati
  4. Royal flush adalah kondisi kartu dimana kartu anda dan kartu tengah dengan total 7 kartu bisa mendapatkan nilai 5 kartu dengan kombinasi seri / staright dengan kembang yang sama tetapi kartu tersebut haruslah dimulai dari 10. contoh 10, Queen, Jack, King dan aces dengan kembang yang sama
  5. Super Royal flush adalah kondisi kartu dimana Kedua kartu anda digabung dengan 3 kartu pertama meja haruslah royal flush. contoh kartu anda 10,Queen kembang sama dan 3 kartu pertama meja adalah Jack, King dan aces dengan kembang yang sama

Demikian adalah penjelasan dari Multi Jackpot www.pbpoker.net terima kasih dan selamat bermain salam hoki dari kami

Texas Poker Jackpot Winner

TOP SUPER ROYAL FLUSH
No.TanggalNamaPriceWin
123/04 04:48GEHUCHENGSuper Royal flush15,000,000
223/04 00:42C76KO7XVWPSuper Royal flush6,000,000
322/04 23:08EB89FT040OSuper Royal flush15,000,000
422/04 16:18XDEJAVUXSuper Royal flush3,000,000
522/04 16:02VIOTASuper Royal flush15,000,000
TOP ROYAL FLUSH
No.TanggalNamaPriceWin
123/04 09:49ANDRIANA89Royal flush1,000,000
223/04 09:21RAFFI08Royal flush2,000,000
323/04 08:04C6088803Royal flush1,000,000
423/04 07:53ARMY_XXXRoyal flush5,000,000
523/04 07:04B3N6K0KGD6Royal flush5,000,000
TOP STRAIGHT FLUSH
No.TanggalNamaPriceWin
123/04 10:36BON19DOLStraight Flush240,000
223/04 10:36STEMPY07Straight Flush240,000
323/04 10:35MONEL321Straight Flush120,000
423/04 10:34AIKOWATIStraight Flush240,000
523/04 10:32B00NG3Straight Flush600,000
LATEST JACKPOT
No.TanggalNamaPriceWin
123/04 10:39SIGONEFull House1,000
223/04 10:39MDYLALAFour Of A Kind50,000
323/04 10:39IN5TANFull House2,000
423/04 10:39JENDOEL333Full House1,000
523/04 10:39JEWER77Full House5,000
623/04 10:39JACKS_8Full House2,000
723/04 10:39F429C158Full House1,000
823/04 10:39BANDITTT89Full House10,000
923/04 10:39JANAH244Full House2,000
1023/04 10:39THRAGNAROKFull House20,000
1123/04 10:39PAIRA666Four Of A Kind500,000
1223/04 10:39KUDU_AS_ASFull House1,000
1323/04 10:39OPPO_A83Full House5,000
1423/04 10:39YDH92Full House10,000
1523/04 10:39DWBTKEIN60Full House5,000
1623/04 10:39ACIEL898Full House1,000
1723/04 10:39A9D2D08DFull House5,000
1823/04 10:39TAKANA990Full House2,000
1923/04 10:39PR4S3TY456Full House5,000
2023/04 10:39D1617236Four Of A Kind25,000
2123/04 10:39TZKCM5OU5SFull House5,000
2223/04 10:39BRYNZFull House2,000
2323/04 10:39ONCES100Full House1,000
2423/04 10:39BAROQUE3Full House10,000
2523/04 10:39BAKURAP123Full House5,000
2623/04 10:39R0N4LDONFull House500
2723/04 10:39LEONIE23Full House1,000
2823/04 10:39PELERNINAFull House5,000
2923/04 10:38EDIE102Full House2,000
3023/04 10:38GABREZZFull House500
3123/04 10:38K1MZ3RLYYFull House10,000
3223/04 10:38MANINJAU68Full House1,000
3323/04 10:38CHANIAGO09Full House5,000
3423/04 10:38BOLDUT10Full House5,000
3523/04 10:38BROO877Full House2,000
3623/04 10:38BNIRETIMFull House20,000
3723/04 10:38MOHAWK666Full House20,000
3823/04 10:38HBPFull House20,000
3923/04 10:38DADO1721Four Of A Kind250,000
4023/04 10:38LOMEN999Full House1,000
4123/04 10:38ENJEKSII11Full House1,000
4223/04 10:38BP9ARPFull House2,000
4323/04 10:38CANLIHAY11Full House1,000
4423/04 10:38SRNMARDI123Full House1,000
4523/04 10:38UTAKP1DARFour Of A Kind125,000
4623/04 10:38SAYEEEFull House1,000
4723/04 10:38MKBER22Full House2,000
4823/04 10:38ROSODOANKFull House10,000
4923/04 10:38PELANDOK1Full House10,000
5023/04 10:38T_T_T_YFull House1,000

Domino Multi Jackpot System

Ikutilah global jackpot yang tersedia di system kami, dengan system jackpot terbaru dan pertama di indonesia, anda dapat membeli jackpot dengan harga 100 rupiah saja dan menangkan hadiahnya hingga puluhan juta rupiah.

Jackpot bukanlah suatu keharusan untuk dibeli, namun kami memberikan suatu fitur tambahan untuk member tercinta dari www.pbpoker.net.

Terdapat tiga pilihan harga jackpot yang bisa anda beli yaitu :100,500 dan 1000 rupiah.

Hadiah dari Multi jackpot system www.pbpoker.net

  1. Murni Kecil x 50 harga jackpot yang anda beli.
      (contoh:anda membeli 1000 maka:1000 X 50 = 50.000)
  2. Murni Besar x 50 harga jackpot yang anda beli
      (contoh:anda membeli 1000 maka:1000 X 50 = 50.000)
  3. BALAK x 100 harga jackpot yang anda beli
      (contoh:anda membeli 1000 maka:1000 X 100 = 100.000)
  4. ENAM DEWA x 6666 harga jackpot yang anda beli
      (contoh:anda membeli 1000 maka:1000 X 6666 = 6.666.000)

Demikian adalah penjelasan dari Multi Jackpot www.pbpoker.net terima kasih dan selamat bermain salam hoki dari kami

Domino Jackpot Winner

TOP ENAM DEWA
No.TanggalNamaPriceWin
123/04 08:58THEMITmurni enam6,666,000
223/04 05:45SJK09A1K1Kmurni enam666,600
323/04 03:30MITU23murni enam666,600
423/04 01:26ONK66murni enam3,333,000
522/04 22:42MUJIJYmurni enam6,666,000
TOP BALAK
No.TanggalNamaPriceWin
123/04 10:37C0NGNEK19balak50,000
223/04 10:37DEMPLON969balak100,000
323/04 10:34KOINANO9balak100,000
423/04 10:31EMPAT66balak100,000
523/04 10:30IWANSURYAAbalak50,000
LATEST JACKPOT
No.TanggalNamaPriceWin
123/04 10:39MURRY88murni kecil50,000
223/04 10:37C0NGNEK19balak50,000
323/04 10:37DEMPLON969balak100,000
423/04 10:37G4G49QQmurni besar50,000
523/04 10:36B3E8AA06murni kecil5,000
623/04 10:35WUSWUS79murni besar50,000
723/04 10:34KOINANO9balak100,000
823/04 10:34NW2DAVUXHPmurni kecil50,000
923/04 10:33FRANAJ3murni besar5,000
1023/04 10:32EXXX123murni kecil25,000
1123/04 10:31EMPAT66balak100,000
1223/04 10:30MS6F2PUGOPmurni besar25,000
1323/04 10:30HRPND601murni kecil50,000
1423/04 10:30ARIF8877lucky9925,000
1523/04 10:30IWANSURYAAbalak50,000
1623/04 10:30IBRO72balak100,000
1723/04 10:29BRONIZ15murni besar50,000
1823/04 10:27PLOSO69murni besar50,000
1923/04 10:26ARFAQILAmurni besar50,000
2023/04 10:25ORA999murni besar25,000
2123/04 10:24HEYGENGSlucky992,500
2223/04 10:23ISKNDRMZ_balak10,000
2323/04 10:23SYAH_222murni besar50,000
2423/04 10:23MORZEK33balak50,000
2523/04 10:22AKIDEDENbalak10,000
2623/04 10:21BOELANK757murni besar50,000
2723/04 10:20RASIQPACUmurni kecil5,000
2823/04 10:20CLBAGUSCPmurni kecil5,000
2923/04 10:19CARDO850murni besar25,000
3023/04 10:18SHA0202murni kecil25,000
3123/04 10:17MRGELOmurni kecil50,000
3223/04 10:17GOGO05murni kecil25,000
3323/04 10:17MANGKUPmurni besar5,000
3423/04 10:17SHA0202murni kecil25,000
3523/04 10:15AL_MUTbalak100,000
3623/04 10:15DAYUNG03murni kecil5,000
3723/04 10:14AHONG861balak10,000
3823/04 10:13DIKKUR5murni besar50,000
3923/04 10:12ARIF8877murni besar25,000
4023/04 10:12TSAUBANmurni kecil5,000
4123/04 10:11AYINKS22murni kecil50,000
4223/04 10:10NORIS_11balak100,000
4323/04 10:10JEBUL707murni besar50,000
4423/04 10:10MON844balak50,000
4523/04 10:09MILLA08murni kecil50,000
4623/04 10:07PRASTYO06murni kecil5,000
4723/04 10:06KIKOKEKIbalak100,000
4823/04 10:06GASOMmurni besar50,000
4923/04 10:06AMMY8888murni besar50,000
5023/04 10:06FRA482murni kecil5,000

Ceme Multi Jackpot System

Jackpot dilihat dari gabungan kartu pemain dengan kartu bandar. Bandar harus membeli jackpot sebanyak jumlah player yang sedang duduk. Sebagai contoh bila terdapat 3 pemain duduk bermain, dan bandar memutuskan untuk membeli jackpot Rp 1.000, maka pada periode tersebut bandar akan membeli jackpot sebanyak 3xRp1.000 = Rp3.000.

Jackpot bukanlah suatu keharusan untuk dibeli, namun kami memberikan suatu fitur tambahan untuk member tercinta dari www.pbpoker.net.

Terdapat tiga pilihan harga jackpot yang bisa anda beli yaitu :100,500 dan 1000 rupiah.

Hadiah dari Multi jackpot system www.pbpoker.net

  1. Murni Kecil x 50 harga jackpot yang anda beli.
      (contoh:anda membeli 1000 maka:1000 X 50 = 50.000)
  2. Murni Besar x 50 harga jackpot yang anda beli
      (contoh:anda membeli 1000 maka:1000 X 50 = 50.000)
  3. BALAK x 200 harga jackpot yang anda beli
      (contoh:anda membeli 1000 maka:1000 X 200 = 200.000)
  4. ENAM DEWA x 6666 harga jackpot yang anda beli
      (contoh:anda membeli 1000 maka:1000 X 6666 = 6.666.000)

Demikian adalah penjelasan dari Multi Jackpot www.pbpoker.net terima kasih dan selamat bermain salam hoki dari kami

Ceme Jackpot Winner

TOP ENAM DEWA
No.TanggalNamaPriceWin
123/04 10:25AREEYmurni enam666,600
223/04 10:23SMPPGRI1murni enam6,666,000
323/04 10:02ACH0NG3murni enam6,666,000
423/04 10:01YUSUF095murni enam6,666,000
523/04 10:01BF6DWYKLAVmurni enam666,600
TOP BALAK
No.TanggalNamaPriceWin
123/04 10:39TARSIH111balak200,000
223/04 10:39AJ4T99QIUbalak200,000
323/04 10:39OOPYES06balak20,000
423/04 10:38FOYLQOHH13balak200,000
523/04 10:38SUTOTObalak200,000
LATEST JACKPOT
No.TanggalNamaPriceWin
123/04 10:39WATUKOSEK2murni besar25,000
223/04 10:39TARSIH111balak200,000
323/04 10:39AJ4T99QIUbalak200,000
423/04 10:39KENDY63murni kecil50,000
523/04 10:39DEDYPLN34murni kecil50,000
623/04 10:39KIHCRENDZmurni kecil5,000
723/04 10:39DEDYPLN34murni kecil50,000
823/04 10:39DEDYPLN34murni kecil50,000
923/04 10:39COMBO6666murni kecil5,000
1023/04 10:39OOPYES06balak20,000
1123/04 10:39ZAMIZAMI12murni besar5,000
1223/04 10:39COROG237murni besar50,000
1323/04 10:38ANDHI23murni kecil50,000
1423/04 10:38RIFKI292murni kecil5,000
1523/04 10:38CLASSRISmurni besar50,000
1623/04 10:38FOYLQOHH13balak200,000
1723/04 10:38SUTOTObalak200,000
1823/04 10:38ENDRO321murni kecil50,000
1923/04 10:38KTRACKbalak100,000
2023/04 10:38ANYUNPALEbalak200,000
2123/04 10:38HQ1NABTP36balak20,000
2223/04 10:38L0YAXmurni besar50,000
2323/04 10:38M7R3Bmurni besar50,000
2423/04 10:38YOHIMbalak200,000
2523/04 10:38TULUS201balak100,000
2623/04 10:38AMMY8888balak200,000
2723/04 10:37FAKHRI51balak20,000
2823/04 10:37ZLIMVILmurni besar50,000
2923/04 10:37TOHID09murni kecil5,000
3023/04 10:37BONDAN003balak200,000
3123/04 10:37ANAKGILA88balak200,000
3223/04 10:37B36HI88203balak20,000
3323/04 10:37FOYLQOHH13murni kecil50,000
3423/04 10:37PLECI899murni kecil50,000
3523/04 10:37REPKI4murni besar50,000
3623/04 10:37DILOGO99murni besar50,000
3723/04 10:37NAYA555murni kecil50,000
3823/04 10:37AGAN96murni kecil50,000
3923/04 10:37DENI791murni kecil5,000
4023/04 10:37MADEBITYmurni besar50,000
4123/04 10:36ICHA899murni besar50,000
4223/04 10:36MINDENKmurni besar50,000
4323/04 10:36FANFAN333murni kecil50,000
4423/04 10:36MYTA14murni kecil5,000
4523/04 10:36GRIWOmurni kecil5,000
4623/04 10:36BP885656murni kecil50,000
4723/04 10:36ORIKEmurni kecil50,000
4823/04 10:36DYNAND_999murni kecil50,000
4923/04 10:36ECOMAC1balak200,000
5023/04 10:35ASHIDAmurni besar50,000